Back to catalog

CZ-4C R/B

AliveSSO
NORAD 39411·ROCKET BODY·🇨🇳 China

Launched Nov 20, 2013 from Taiyuan Satellite Launch Center

Loading…

Next Passes (next 24 hours)

TLE

FreshSource: Space-Track

Epoch: Sep 14, 2026, 06:56 UTC

1 39411U 13065B   26257.28956604 -.00000026  00000-0  36752-4 0  9991
2 39411 100.4175 203.6347 0140232 353.3212   6.6045 13.43555251628555

Track CZ-4C R/B in real time with AllMySat

Download on the App Store